DW0275 Weather Reports


time (UTC)temp
C
wind
direction
speed
KPH
gust
KPH
rain 1hr
cm
rain 24hr
cm
rain mn
cm
humidity
%
barometer
mb
20260904160325 33 143 4.8 9.7 0.00 0.00 0.00 76 1017.6
20260904160019 33 139 1.6 12.9 0.00 0.00 0.00 77 1017.5
20260904155820 33 217 1.6 12.9 0.00 0.00 0.00 78 1017.5
20260904155316 32 196 6.4 12.9 0.00 0.00 0.00 78 1017.5
20260904154834 32 191 3.2 8.0 0.00 0.00 0.00 80 1017.5
20260904154535 32 106 1.6 8.0 0.00 0.00 0.00 80 1017.3
20260904154330 32 120 3.2 8.0 0.00 0.00 0.00 81 1017.4
20260904153829 31 79 1.6 8.0 0.00 0.00 0.00 82 1017.4
20260904153326 31 76 3.2 9.7 0.00 0.00 0.00 83 1017.4
20260904153022 30 112 3.2 9.7 0.00 0.00 0.00 83 1017.3
20260904152825 30 124 3.2 9.7 0.00 0.00 0.00 83 1017.4
20260904152321 30 136 4.8 9.7 0.00 0.00 0.00 83 1017.5
20260904151819 30 110 4.8 8.0 0.00 0.00 0.00 83 1017.7
20260904151538 30 132 3.2 6.4 0.00 0.00 0.00 83 1017.5
20260904151338 30 122 3.2 6.4 0.00 0.00 0.00 83 1017.6
20260904150814 30 136 1.6 3.2 0.00 0.00 0.00 83 1017.7
20260904150355 30 120 1.6 6.4 0.00 0.00 0.00 84 1017.6
20260904150048 30 70 0.0 8.0 0.00 0.00 0.00 84 1017.5
20260904145830 30 91 1.6 8.0 0.00 0.00 0.00 84 1017.6
20260904145328 30 122 3.2 8.0 0.00 0.00 0.00 84 1017.5
20260904144824 29 127 1.6 6.4 0.00 0.00 0.00 85 1017.3
20260904144539 29 134 1.6 6.4 0.00 0.00 0.00 85 1017.2
20260904144322 29 126 0.0 0.0 0.00 0.00 0.00 85 1017.3
20260904143819 29 131 0.0 0.0 0.00 0.00 0.00 85 1017.3
20260904143317 29 115 0.0 4.8 0.00 0.00 0.00 85 1017.2
20260904143023 28 149 0.0 4.8 0.00 0.00 0.00 85 1017.2
20260904142815 29 83 1.6 4.8 0.00 0.00 0.00 84 1017.3
20260904142331 29 109 1.6 9.7 0.00 0.00 0.00 84 1017.3
20260904141827 29 146 6.4 9.7 0.00 0.00 0.00 84 1017.2
20260904141522 29 132 3.2 9.7 0.00 0.00 0.00 84 1017.0
20260904141325 29 127 4.8 9.7 0.00 0.00 0.00 84 1017.1
20260904140822 30 127 6.4 12.9 0.00 0.00 0.00 83 1017.1
20260904140316 30 134 4.8 12.9 0.00 0.00 0.00 82 1017.0
20260904140005 30 159 6.4 12.9 0.00 0.00 0.00 82 1016.8
20260904135814 31 123 6.4 9.7 0.00 0.00 0.00 82 1017.0
20260904135333 31 202 1.6 8.0 0.00 0.00 0.00 82 1017.0
20260904134831 31 109 3.2 8.0 0.00 0.00 0.00 81 1017.0
20260904134554 31 114 1.6 11.3 0.00 0.00 0.00 81 1016.9
20260904134329 32 150 3.2 11.3 0.00 0.00 0.00 81 1016.9
20260904133827 32 118 6.4 11.3 0.00 0.00 0.00 81 1016.8
20260904133323 32 170 0.0 4.8 0.00 0.00 0.00 81 1016.9
20260904133030 32 284 0.0 4.8 0.00 0.00 0.00 81 1016.7
20260904132821 33 123 0.0 3.2 0.00 0.00 0.00 81 1016.9
20260904132340 33 125 0.0 3.2 0.00 0.00 0.00 81 1016.7
20260904131837 32 141 0.0 3.2 0.00 0.00 0.00 81 1016.7
20260904131553 32 141 1.6 3.2 0.00 0.00 0.00 81 1016.7
20260904131353 32 157 1.6 3.2 0.00 0.00 0.00 81 1016.8
20260904130849 32 129 1.6 3.2 0.00 0.00 0.00 81 1016.7
20260904130324 32 124 0.0 3.2 0.00 0.00 0.00 82 1016.7
20260904130053 32 168 0.0 3.2 0.00 0.00 0.00 82 1016.5
20260904125821 32 140 1.6 3.2 0.00 0.00 0.00 82 1016.6
20260904125338 31 134 1.6 6.4 0.00 0.00 0.00 83 1016.5
20260904124855 31 127 1.6 9.7 0.00 0.00 0.00 83 1016.6
20260904124511 31 169 3.2 9.7 0.00 0.00 0.00 83 1016.4
20260904124329 31 107 1.6 9.7 0.00 0.00 0.00 83 1016.5
20260904123826 31 131 0.0 0.0 0.00 0.00 0.00 83 1016.5
20260904123324 31 146 0.0 0.0 0.00 0.00 0.00 84 1016.5
20260904123037 30 146 0.0 0.0 0.00 0.00 0.00 85 1016.4
20260904122820 30 127 0.0 0.0 0.00 0.00 0.00 86 1016.4
20260904122317 30 127 0.0 0.0 0.00 0.00 0.00 89 1016.4
20260904121834 29 127 0.0 0.0 0.00 0.00 0.00 91 1016.4
20260904121517 28 127 0.0 0.0 0.00 0.00 0.00 92 1016.3
20260904121329 28 127 0.0 0.0 0.00 0.00 0.00 93 1016.3
20260904120820 28 127 0.0 0.0 0.00 0.00 0.00 93 1016.3
20260904120318 28 127 0.0 0.0 0.00 0.00 0.00 94 1016.4
20260904120016 27 127 0.0 0.0 0.00 0.00 0.00 94 1016.2
20260904115833 27 127 0.0 0.0 0.00 0.00 0.00 94 1016.3
20260904115329 27 127 0.0 0.0 0.00 0.00 0.00 93 1016.3
20260904114825 26 127 0.0 0.0 0.00 0.00 0.00 93 1016.1
20260904114539 26 127 0.0 0.0 0.00 0.00 0.00 93 1016.0
20260904114322 26 127 0.0 0.0 0.00 0.00 0.00 93 1016.2
20260904113820 26 127 0.0 0.0 0.00 0.00 0.00 93 1016.1
20260904113317 26 127 0.0 0.0 0.00 0.00 0.00 93 1016.2
20260904113020 26 127 0.0 0.0 0.00 0.00 0.00 93 1016.0
20260904112815 26 127 0.0 0.0 0.00 0.00 0.00 93 1016.1
20260904112333 26 127 0.0 0.0 0.00 0.00 0.00 93 1016.0
20260904111852 26 127 0.0 0.0 0.00 0.00 0.00 93 1016.1
20260904111550 26 127 0.0 0.0 0.00 0.00 0.00 93 1016.0
20260904111327 26 127 0.0 0.0 0.00 0.00 0.00 93 1016.0
20260904110825 26 127 0.0 0.0 0.00 0.00 0.00 93 1016.0
20260904110323 26 127 0.0 0.0 0.00 0.00 0.00 93 1015.9
20260904110010 26 127 0.0 0.0 0.00 0.00 0.00 93 1015.8
20260904105819 26 127 0.0 0.0 0.00 0.00 0.00 93 1015.8
20260904105315 26 127 0.0 0.0 0.00 0.00 0.00 93 1015.7
20260904104831 26 127 0.0 0.0 0.00 0.00 0.00 93 1015.7
20260904104553 26 127 0.0 0.0 0.00 0.00 0.00 93 1015.6
20260904104346 26 127 0.0 0.0 0.00 0.00 0.00 93 1015.6
20260904103824 26 127 0.0 0.0 0.00 0.00 0.00 93 1015.7
20260904103320 26 127 0.0 0.0 0.00 0.00 0.00 93 1015.6
20260904103022 26 127 0.0 0.0 0.00 0.00 0.00 93 1015.4
20260904102838 26 127 0.0 0.0 0.00 0.00 0.00 93 1015.6
20260904102315 26 127 0.0 0.0 0.00 0.00 0.00 93 1015.5
20260904101833 26 127 0.0 0.0 0.00 0.00 0.00 92 1015.4
20260904101549 26 127 0.0 0.0 0.00 0.00 0.00 92 1015.3
20260904101330 26 127 0.0 0.0 0.00 0.00 0.00 92 1015.5
20260904100828 26 127 0.0 0.0 0.00 0.00 0.00 92 1015.4
20260904100325 26 127 0.0 0.0 0.00 0.00 0.00 92 1015.3
20260904100034 26 127 0.0 0.0 0.00 0.00 0.00 92 1015.2
20260904095842 26 127 0.0 0.0 0.00 0.00 0.00 92 1015.3
20260904095318 27 127 0.0 0.0 0.00 0.00 0.00 92 1015.2
20260904094816 27 127 0.0 0.0 0.00 0.00 0.00 92 1015.1
20260904094601 26 127 0.0 0.0 0.00 0.00 0.00 92 1014.9
20260904094503 26 127 0.0 0.0 0.00 0.00 0.00 92 1014.9
20260904094316 26 127 0.0 0.0 0.00 0.00 0.00 92 1015.0
20260904093834 26 127 0.0 0.0 0.00 0.00 0.00 92 1015.1
20260904093352 26 127 0.0 0.0 0.00 0.00 0.00 92 1015.0
20260904093027 26 127 0.0 0.0 0.00 0.00 0.00 92 1014.9
20260904092845 27 127 0.0 0.0 0.00 0.00 0.00 92 1014.9
20260904092340 27 127 0.0 0.0 0.00 0.00 0.00 92 1015.0
20260904091836 27 127 0.0 0.0 0.00 0.00 0.00 92 1015.0
20260904091506 26 127 0.0 0.0 0.00 0.00 0.00 92 1014.8
20260904091332 27 127 0.0 0.0 0.00 0.00 0.00 92 1014.9
20260904090828 27 127 0.0 0.0 0.00 0.00 0.00 92 1015.0
20260904090325 27 127 0.0 0.0 0.00 0.00 0.00 92 1014.9
20260904090051 26 127 0.0 0.0 0.00 0.00 0.00 92 1014.8
20260904085824 26 127 0.0 0.0 0.00 0.00 0.00 92 1014.9
20260904085321 26 127 0.0 0.0 0.00 0.00 0.00 92 1014.8
20260904084818 26 127 0.0 0.0 0.00 0.00 0.00 92 1014.8
20260904084538 26 127 0.0 0.0 0.00 0.00 0.00 92 1014.7
20260904084317 26 127 0.0 0.0 0.00 0.00 0.00 92 1014.8
20260904083814 26 127 0.0 0.0 0.00 0.00 0.00 92 1014.8
20260904083333 26 127 0.0 0.0 0.00 0.00 0.00 92 1014.8
20260904083024 26 127 0.0 0.0 0.00 0.00 0.00 92 1014.7
20260904082830 26 127 0.0 0.0 0.00 0.00 0.00 92 1014.7
20260904082328 26 127 0.0 0.0 0.00 0.00 0.00 91 1014.7
20260904081847 26 127 0.0 0.0 0.00 0.00 0.00 91 1014.7
20260904081550 26 127 0.0 0.0 0.00 0.00 0.00 91 1014.5
20260904081323 26 127 0.0 0.0 0.00 0.00 0.00 91 1014.7
20260904080820 26 127 0.0 0.0 0.00 0.00 0.00 91 1014.7
20260904080319 26 127 0.0 0.0 0.00 0.00 0.00 91 1014.7
20260904080038 26 127 0.0 0.0 0.00 0.00 0.00 91 1014.6
20260904075817 26 127 0.0 0.0 0.00 0.00 0.00 91 1014.7
20260904075314 26 127 0.0 0.0 0.00 0.00 0.00 91 1014.6
20260904074832 26 127 0.0 0.0 0.00 0.00 0.00 91 1014.6
20260904074530 26 127 0.0 0.0 0.00 0.00 0.00 91 1014.5
20260904074329 27 127 0.0 0.0 0.00 0.00 0.00 91 1014.5
20260904073826 27 127 0.0 0.0 0.00 0.00 0.00 91 1014.6
20260904073322 26 127 0.0 0.0 0.00 0.00 0.00 90 1014.7
20260904073013 26 127 0.0 0.0 0.00 0.00 0.00 90 1014.7
20260904072819 27 127 0.0 0.0 0.00 0.00 0.00 90 1014.8
20260904072336 27 127 0.0 0.0 0.00 0.00 0.00 90 1014.8
20260904071855 27 127 0.0 0.0 0.00 0.00 0.00 90 1014.8
20260904071536 26 127 0.0 0.0 0.00 0.00 0.00 90 1014.7
20260904071350 27 127 0.0 0.0 0.00 0.00 0.00 90 1014.8
20260904070848 27 127 0.0 0.0 0.00 0.00 0.00 90 1014.9
20260904070324 27 127 0.0 0.0 0.00 0.00 0.00 90 1014.8
20260904070039 26 127 0.0 0.0 0.00 0.00 0.00 90 1014.7
20260904065820 27 127 0.0 0.0 0.00 0.00 0.00 90 1014.8
20260904065337 27 127 0.0 0.0 0.00 0.00 0.00 90 1014.8
20260904064833 27 127 0.0 0.0 0.00 0.00 0.00 90 1014.9
20260904064555 27 127 0.0 0.0 0.00 0.00 0.00 90 1014.8
20260904064329 27 127 0.0 0.0 0.00 0.00 0.00 90 1014.9
20260904063828 27 127 0.0 0.0 0.00 0.00 0.00 90 1014.9
20260904063325 27 127 0.0 0.0 0.00 0.00 0.00 90 1015.0
20260904063050 27 127 0.0 0.0 0.00 0.00 0.00 90 1014.9
20260904062822 27 127 0.0 0.0 0.00 0.00 0.00 90 1015.0
20260904062319 27 127 0.0 0.0 0.00 0.00 0.00 90 1015.1
20260904061816 27 127 0.0 0.0 0.00 0.00 0.00 90 1015.0
20260904061529 27 127 0.0 0.0 0.00 0.00 0.00 90 1015.0
20260904061330 27 127 0.0 0.0 0.00 0.00 0.00 90 1015.1
20260904060829 27 127 0.0 0.0 0.00 0.00 0.00 89 1015.2
20260904060325 27 127 0.0 0.0 0.00 0.00 0.00 89 1015.1
20260904060018 27 127 0.0 0.0 0.00 0.00 0.00 89 1015.0
20260904055823 27 127 0.0 0.0 0.00 0.00 0.00 89 1015.2
20260904055320 27 127 0.0 0.0 0.00 0.00 0.00 89 1015.3
20260904054817 27 127 0.0 0.0 0.00 0.00 0.00 89 1015.3
20260904054558 27 127 0.0 0.0 0.00 0.00 0.00 89 1015.1
20260904054316 27 127 0.0 0.0 0.00 0.00 0.00 89 1015.2
20260904053835 27 127 0.0 0.0 0.00 0.00 0.00 89 1015.4
20260904053350 27 122 0.0 0.0 0.00 0.00 0.00 89 1015.3
20260904053025 27 122 0.0 0.0 0.00 0.00 0.00 89 1015.2
20260904052824 27 122 0.0 0.0 0.00 0.00 0.00 90 1015.3
20260904052323 27 122 0.0 0.0 0.00 0.00 0.00 90 1015.4
20260904051819 27 115 0.0 0.0 0.00 0.00 0.00 91 1015.5
20260904051539 27 115 0.0 0.0 0.00 0.00 0.00 91 1015.4
20260904051337 27 115 0.0 0.0 0.00 0.00 0.00 90 1015.5
20260904050834 27 115 0.0 0.0 0.00 0.00 0.00 90 1015.5
20260904050332 27 115 0.0 0.0 0.00 0.00 0.00 91 1015.5
20260904050045 27 115 0.0 0.0 0.00 0.00 0.00 91 1015.4
20260904045824 27 115 0.0 0.0 0.00 0.18 0.00 91 1015.5
20260904045321 27 115 0.0 0.0 0.00 0.18 0.00 90 1015.5
20260904044819 27 115 0.0 0.0 0.00 0.18 0.00 90 1015.6
20260904044533 27 115 0.0 0.0 0.00 0.18 0.00 90 1015.4
20260904044316 27 115 0.0 0.0 0.00 0.18 0.00 90 1015.5
20260904043832 27 115 0.0 0.0 0.00 0.18 0.00 90 1015.6
20260904043329 27 115 0.0 0.0 0.00 0.18 0.00 90 1015.8
20260904043015 27 115 0.0 0.0 0.00 0.18 0.00 90 1015.7
20260904042846 27 115 0.0 0.0 0.00 0.18 0.00 90 1015.8
20260904042322 27 115 0.0 0.0 0.00 0.18 0.00 90 1015.9
20260904041821 27 115 0.0 0.0 0.00 0.18 0.00 90 1015.8
20260904041542 27 115 0.0 0.0 0.00 0.18 0.00 90 1015.7
20260904041318 27 115 0.0 0.0 0.00 0.18 0.00 90 1015.8
20260904040816 27 115 0.0 0.0 0.00 0.18 0.00 90 1015.9
20260904040314 27 115 0.0 0.0 0.00 0.18 0.00 90 1015.9
20260904040033 27 115 0.0 0.0 0.00 2.16 0.00 90 1015.7
20260904035830 27 115 0.0 0.0 0.00 2.16 0.18 90 1015.8
20260904035328 27 115 0.0 0.0 0.00 2.16 0.18 89 1015.8
20260904034826 27 115 0.0 0.0 0.00 2.16 0.18 89 1015.9
20260904034508 27 115 0.0 0.0 0.00 2.16 0.18 89 1015.6
20260904034323 27 115 0.0 0.0 0.00 2.16 0.18 89 1015.8
20260904033820 27 115 0.0 0.0 0.00 2.16 0.18 89 1015.9
20260904033338 27 115 0.0 0.0 0.00 2.16 0.18 89 1015.9
20260904033027 27 115 0.0 0.0 0.00 2.16 0.18 89 1015.9
20260904032834 27 115 0.0 0.0 0.00 2.16 0.18 89 1016.0
20260904032333 27 115 0.0 0.0 0.00 2.16 0.18 89 1016.0
20260904031829 27 115 0.0 0.0 0.00 2.16 0.18 89 1016.0
20260904031514 27 115 0.0 0.0 0.00 2.16 0.18 89 1015.7
20260904031327 27 115 0.0 0.0 0.00 2.16 0.18 89 1015.9
20260904030846 27 115 0.0 0.0 0.00 2.16 0.18 88 1016.0
20260904030324 27 115 0.0 0.0 0.00 2.16 0.18 88 1016.0
20260904030041 27 115 0.0 0.0 0.00 2.16 0.18 88 1015.9
20260904025824 27 115 0.0 0.0 0.00 2.16 0.18 88 1016.1
20260904025321 28 115 0.0 0.0 0.00 2.16 0.18 88 1016.0
20260904024820 28 115 0.0 0.0 0.00 2.16 0.18 87 1016.0
20260904024534 27 115 0.0 0.0 0.00 2.16 0.18 87 1015.9
20260904024318 28 115 0.0 0.0 0.00 2.16 0.18 87 1016.1
20260904023832 28 115 0.0 0.0 0.00 2.16 0.18 86 1016.1
20260904023348 28 115 0.0 0.0 0.00 2.16 0.18 86 1016.0
20260904023056 28 115 0.0 0.0 0.00 2.16 0.18 86 1015.9
20260904022825 28 115 0.0 0.0 0.00 2.16 0.18 85 1016.0
20260904022341 28 115 0.0 0.0 0.00 2.16 0.18 85 1016.0
20260904021838 28 115 0.0 0.0 0.00 2.16 0.18 84 1016.0
20260904021519 28 115 0.0 0.0 0.00 2.16 0.18 84 1016.0
20260904021356 28 115 0.0 0.0 0.00 2.16 0.18 84 1016.1
20260904020832 29 115 0.0 0.0 0.00 2.16 0.18 83 1016.0
20260904020328 29 115 0.0 0.0 0.00 2.16 0.18 83 1016.0
20260904020043 29 115 0.0 0.0 0.00 2.16 0.18 83 1015.8
20260904015826 30 115 0.0 0.0 0.00 2.16 0.18 83 1015.9
20260904015324 30 115 0.0 4.8 0.00 2.16 0.18 83 1015.8
20260904014820 30 119 0.0 4.8 0.00 2.16 0.18 83 1015.8
20260904014524 29 148 0.0 3.2 0.00 2.16 0.18 83 1015.5
20260904014338 30 146 0.0 4.8 0.00 2.16 0.18 82 1015.7
20260904013817 30 148 1.6 4.8 0.00 2.16 0.18 82 1015.7
20260904013334 30 113 0.0 4.8 0.00 2.16 0.18 83 1015.6
20260904013050 30 113 0.0 4.8 0.00 2.16 0.18 82 1015.5
20260904012832 30 113 1.6 4.8 0.00 2.16 0.18 82 1015.6
20260904012328 30 129 3.2 4.8 0.00 2.16 0.18 82 1015.6
20260904011826 30 125 1.6 6.4 0.00 2.16 0.18 82 1015.6
20260904011545 30 115 1.6 6.4 0.00 2.16 0.18 82 1015.5
20260904011323 30 129 0.0 3.2 0.00 2.16 0.18 82 1015.5
20260904010819 30 122 0.0 3.2 0.00 2.16 0.18 82 1015.4
20260904010317 30 113 0.0 6.4 0.00 2.16 0.18 82 1015.4
20260904010038 30 138 3.2 9.7 0.00 2.16 0.18 82 1015.2
20260904005816 30 122 4.8 9.7 0.00 2.16 0.18 82 1015.3
20260904005333 30 125 4.8 9.7 0.00 2.16 0.18 82 1015.3
20260904004849 30 124 4.8 9.7 0.00 2.16 0.18 82 1015.3
20260904004550 30 135 4.8 8.0 0.00 2.16 0.18 82 1015.2
20260904004325 30 108 3.2 8.0 0.00 2.16 0.18 82 1015.2
20260904003823 30 125 4.8 8.0 0.00 2.16 0.18 82 1015.1
20260904003322 30 121 4.8 6.4 0.00 2.16 0.18 82 1015.0
20260904003034 30 136 1.6 6.4 0.00 2.16 0.18 82 1014.9
20260904002839 30 137 3.2 9.7 0.00 2.16 0.18 82 1015.0
20260904002334 30 131 3.2 9.7 0.00 2.16 0.18 82 1015.0
20260904001851 30 128 4.8 9.7 0.00 2.16 0.18 82 1014.9
20260904001541 30 121 4.8 8.0 0.00 2.16 0.18 82 1014.9
20260904001346 30 158 4.8 9.7 0.00 2.16 0.18 82 1015.0
20260904000824 30 125 3.2 9.7 0.00 2.16 0.18 82 1015.0
20260904000340 30 148 4.8 8.0 0.00 2.16 0.18 82 1014.9
20260904000052 30 125 3.2 8.0 0.00 2.16 0.18 82 1014.8
20260903235816 30 128 3.2 8.0 0.00 2.16 0.18 82 1015.0
20260903235334 30 111 1.6 6.4 0.00 2.16 0.18 82 1014.9
20260903234830 30 143 1.6 8.0 0.00 2.16 0.18 82 1014.9
20260903234508 30 137 3.2 8.0 0.00 2.16 0.18 82 1014.8
20260903234328 30 139 4.8 8.0 0.00 2.16 0.18 82 1014.8
20260903233847 30 127 3.2 8.0 0.00 2.16 0.18 82 1014.9
20260903233322 30 116 4.8 8.0 0.00 2.16 0.18 82 1014.9
20260903233027 30 132 0.0 9.7 0.00 2.16 0.18 82 1014.7
20260903232820 30 94 1.6 9.7 0.00 2.16 0.18 82 1014.7
20260903231826 30 128 4.8 9.7 0.00 2.16 0.18 82 1014.5
20260903231528 30 155 3.2 9.7 0.00 2.16 0.18 82 1014.4
20260903231324 30 110 6.4 9.7 0.00 2.16 0.18 82 1014.6
20260903230821 30 150 3.2 9.7 0.00 2.16 0.18 82 1014.5
20260903230338 30 125 3.2 6.4 0.00 2.16 0.18 82 1014.5
20260903230021 30 342 0.0 0.0 0.00 2.16 0.18 83 1014.6
20260903225855 30 342 0.0 0.0 0.00 2.16 0.18 83 1014.8
20260903225331 30 342 0.0 0.0 0.00 2.16 0.18 82 1014.8
20260903224848 30 342 0.0 0.0 0.00 2.16 0.18 82 1014.8
20260903224515 30 342 0.0 0.0 0.00 2.16 0.18 83 1014.8
20260903224325 30 342 0.0 0.0 0.00 2.16 0.18 83 1015.0
20260903223843 30 342 0.0 0.0 0.00 2.16 0.18 82 1014.9
20260903223320 30 342 0.0 0.0 0.00 2.16 0.18 83 1014.8
20260903223040 30 342 0.0 0.0 0.00 2.16 0.18 83 1014.7
20260903222820 30 342 0.0 1.6 0.00 2.16 0.18 82 1014.7
20260903222338 30 342 0.0 3.2 0.00 2.16 0.18 82 1014.7
20260903221816 30 342 1.6 3.2 0.00 2.16 0.18 82 1014.6
20260903221558 30 356 0.0 3.2 0.00 2.16 0.18 82 1014.5
20260903221332 30 2 0.0 1.6 0.00 2.16 0.18 82 1014.6
20260903220830 30 339 0.0 0.0 0.00 2.16 0.18 82 1014.5
20260903220326 30 339 0.0 0.0 0.00 2.16 0.18 83 1014.4
20260903220053 30 340 0.0 0.0 0.00 2.16 0.18 82 1014.3
20260903215823 30 339 0.0 0.0 0.00 2.16 0.18 83 1014.3
20260903215320 30 339 0.0 0.0 0.00 2.16 0.18 82 1014.2
20260903214541 29 339 0.0 3.2 0.00 2.16 0.18 82 1014.1
20260903214326 30 339 0.0 6.4 0.00 2.16 0.18 82 1014.0
20260903213823 29 339 1.6 6.4 0.00 2.16 0.18 82 1014.0
20260903213319 30 54 3.2 4.8 0.00 2.16 0.18 82 1014.0
20260903213016 30 346 1.6 6.4 0.00 2.16 0.18 82 1013.9
20260903212837 30 25 1.6 8.0 0.00 2.16 0.18 82 1014.0
20260903211815 31 357 6.4 12.9 0.00 2.16 0.18 80 1013.8
20260903211533 31 346 4.8 12.9 0.00 2.16 0.18 79 1013.6
20260903211331 32 356 6.4 12.9 0.00 2.16 0.18 78 1013.8
20260903210827 32 128 0.0 1.6 0.00 2.16 0.18 77 1013.7
20260903210344 32 129 0.0 3.2 0.00 2.16 0.18 77 1013.8
20260903210108 32 129 0.0 8.0 0.00 2.16 0.18 76 1013.6
20260903205819 32 129 1.6 8.0 0.00 2.16 0.18 76 1013.9
20260903205315 32 124 3.2 11.3 0.00 2.16 0.18 74 1014.0
20260903204833 32 159 3.2 12.9 0.00 2.16 0.18 76 1014.1
20260903204604 32 148 0.0 12.9 0.00 2.16 0.18 75 1014.1
20260903204329 32 124 6.4 12.9 0.00 2.16 0.18 75 1014.2
20260903203825 32 131 4.8 9.7 0.00 2.16 0.18 76 1014.1
20260903203342 32 146 3.2 12.9 0.00 2.16 0.18 76 1013.8
20260903203009 32 162 1.6 12.9 0.00 2.16 0.18 76 1013.5
20260903202818 32 139 3.2 12.9 0.00 2.16 0.18 77 1013.6
20260903202316 32 127 4.8 12.9 0.00 2.16 0.18 77 1013.5
20260903201814 33 143 6.4 12.9 0.00 2.16 0.18 76 1013.5
20260903201551 32 174 4.8 11.3 0.00 2.16 0.18 77 1013.4
20260903201331 33 176 6.4 11.3 0.00 2.16 0.18 76 1013.7
20260903200825 33 81 3.2 14.5 0.00 2.16 0.18 78 1013.8
20260903200342 32 147 6.4 14.5 0.00 2.16 0.18 77 1013.9
20260903200011 32 172 4.8 16.1 0.00 2.16 0.18 78 1013.8
20260903195818 32 199 6.4 16.1 0.00 2.16 0.18 78 1013.9
20260903195335 32 174 6.4 16.1 0.00 2.16 0.18 78 1013.8
20260903194853 32 127 6.4 16.1 0.00 2.16 0.18 78 1013.6
20260903194529 32 144 4.8 12.9 0.00 2.16 0.18 78 1013.5
20260903194329 32 227 4.8 14.5 0.00 2.16 0.18 79 1013.8
20260903193826 32 113 4.8 14.5 0.00 2.16 0.18 79 1013.9
20260903193322 32 91 3.2 8.0 0.00 2.16 0.18 80 1014.1
20260903193017 32 148 1.6 14.5 0.00 2.16 0.18 80 1013.9
20260903192819 32 129 1.6 14.5 0.00 2.16 0.18 80 1014.0
20260903192316 32 156 6.4 16.1 0.00 2.16 0.18 79 1014.0
20260903191815 32 130 11.3 16.1 0.00 2.16 0.18 78 1014.1
20260903191509 32 171 4.8 16.1 0.00 2.16 0.18 79 1013.9
20260903191331 32 151 6.4 16.1 0.00 2.16 0.18 79 1014.0
20260903190828 32 160 9.7 16.1 0.00 2.16 0.18 79 1014.0
20260903190321 32 125 4.8 14.5 0.00 2.16 0.18 79 1013.9
20260903190043 32 122 6.4 14.5 0.00 2.16 0.18 79 1014.0
20260903185838 32 98 8.0 14.5 0.00 2.16 0.18 78 1014.1
20260903185355 33 108 8.0 14.5 0.00 2.16 0.18 79 1014.2
20260903184826 32 122 6.4 17.7 0.00 2.16 0.18 79 1014.2
20260903184551 32 153 8.0 17.7 0.00 2.16 0.18 78 1014.1
20260903184322 32 119 9.7 16.1 0.00 2.16 0.18 79 1014.1
20260903183819 32 128 6.4 17.7 0.00 2.16 0.18 79 1014.1
20260903183318 32 139 8.0 17.7 0.00 2.16 0.18 80 1014.1
20260903183038 32 61 8.0 17.7 0.00 2.16 0.18 79 1014.0
20260903182350 32 136 6.4 14.5 0.00 2.16 0.18 79 1014.0
20260903181825 32 133 9.7 14.5 0.00 2.16 0.18 77 1014.2
20260903181548 32 142 3.2 11.3 0.00 2.16 0.18 78 1014.2
20260903181323 32 134 3.2 11.3 0.00 2.16 0.18 79 1014.3
20260903180820 32 141 3.2 6.4 0.00 2.16 0.18 79 1014.2
20260903180317 32 81 3.2 12.9 0.00 2.16 0.18 78 1014.2
20260903180036 32 144 4.8 12.9 0.00 2.16 0.18 78 1014.1
20260903175835 32 147 8.0 12.9 0.00 2.16 0.18 78 1014.3
20260903175353 32 127 1.6 8.0 0.00 2.16 0.18 79 1014.5
20260903174828 32 147 3.2 9.7 0.00 2.16 0.18 79 1014.6
20260903174555 32 125 1.6 9.7 0.00 2.16 0.18 79 1014.6
20260903174324 32 136 4.8 9.7 0.00 2.16 0.18 79 1014.7
20260903173822 32 138 4.8 9.7 0.00 2.16 0.18 79 1014.8
20260903173340 32 134 3.2 12.9 0.00 2.16 0.18 80 1015.0
20260903173017 32 149 4.8 12.9 0.00 2.16 0.18 80 1014.8
20260903172836 32 120 6.4 12.9 0.00 2.16 0.18 80 1014.9
20260903172353 32 96 6.4 9.7 0.00 2.16 0.18 79 1015.1
20260903171828 32 140 3.2 11.3 0.00 2.16 0.18 80 1015.1
20260903171514 32 138 6.4 12.9 0.00 2.16 0.18 80 1015.1
20260903171345 32 130 6.4 12.9 0.00 2.16 0.18 81 1015.3
20260903170822 32 126 6.4 16.1 0.00 2.16 0.18 81 1015.5
20260903170318 32 133 6.4 16.1 0.00 2.16 0.18 81 1015.4
20260903170035 31 101 8.0 16.1 0.00 2.16 0.18 81 1015.4
20260903165815 32 142 9.7 14.5 0.00 2.16 0.18 81 1015.6
20260903165327 32 120 9.7 14.5 0.00 2.16 0.18 79 1015.5
20260903164825 32 132 4.8 12.9 0.00 2.16 0.18 81 1015.5
20260903164519 32 78 4.8 16.1 0.00 2.16 0.18 81 1015.4
20260903164343 32 132 6.4 16.1 0.00 2.16 0.18 81 1015.6
20260903163820 32 131 11.3 16.1 0.00 2.16 0.18 80 1015.7
20260903163337 32 117 11.3 16.1 0.00 2.16 0.18 79 1015.8
20260903163037 33 124 4.8 12.9 0.00 2.16 0.18 78 1015.8
20260903162854 33 117 3.2 9.7 0.00 2.16 0.18 76 1016.0
20260903162330 33 150 1.6 4.8 0.00 2.16 0.18 77 1016.0
20260903161826 33 215 0.0 4.8 0.00 2.16 0.18 78 1016.0
20260903161600 32 181 0.0 4.8 0.00 2.16 0.18 77 1015.9
20260903161501 32 155 0.0 1.6 0.00 2.16 0.18 78 1016.0
20260903161324 33 307 0.0 1.6 0.00 2.16 0.18 78 1016.1
20260903160842 33 308 0.0 6.4 0.00 2.16 0.18 78 1016.2